{"data":{"norad_id":67777,"intl_designator":"2026-030P","name":"KUIPER-00213","alt_names":[],"object_type":"PAYLOAD","status":"ACTIVE","operator":null,"country":"US","launch_date":"2026-02-12","launch_site_code":"FRGUI","launch_vehicle":null,"mission":null,"orbit_class":"UNKNOWN","rcs_meters":null,"size_class":null,"mass_kg":null,"dimensions":null,"purposes":[],"wikipedia_slug":null,"has_3d_model":false,"image_url":null,"decayed_at":null,"tle_current":{"epoch":"2026-09-20T22:56:57.548832Z","epoch_age_seconds":47666,"freshness":"FRESH","line1":"1 67777U 26030P   26263.95622163  .00001757  00000+0  25935-3 0  9994","line2":"2 67777  51.8957  62.1850 0000687 116.1987 243.9046 14.79945761 34195","mean_motion":14.79945761,"eccentricity":6.87e-5,"inclination_deg":51.8957,"raan_deg":62.185,"arg_perigee_deg":116.1987,"mean_anomaly_deg":243.9046,"bstar":0.00025935,"rev_number":3419,"period_min":97.300863176701,"perigee_km":629.01392180745,"apogee_km":629.97677049181,"semimajor_km":7007.6323461496,"source":"CELESTRAK","updated_at":"2026-09-21T09:00:16.830619Z"}}}